Location: Unspecified
(0.0000°N, 0.0000°E)
Time: 17:50:19
(UTC+00:00)

STARLINK-36339 - Pass Details

Date: 11 January 2026
Orbit: 254 x 257 km, 43.0° (Epoch: 11 January)

Event Time Altitude Azimuth Distance (km) Brightness Sun altitude
Rises 18:41:24 0° 284° (WNW) 1,832 6.3 -7.7°
Reaches altitude 10° 18:44:21 10° 240° (WSW) 1,031 5.7 -8.4°
Maximum altitude 18:44:58 11° 225° (SW) 997 5.2 -8.6°
Drops below altitude 10° 18:45:35 10° 209° (SSW) 1,032 4.9 -8.7°
Sets 18:48:32 0° 166° (SSE) 1,834 5.4 -9.4°
